map of UBA home
Great Circle Mapper logo
UBA - Airport
Location
City:  Uberaba, Minas Gerais, Brazil
Name:Mário de Almeida Franco Airport
ICAO / IATA:SBUR / UBA

Details
Type:Airport (Aerodrome, Airfield)
Use:Public/Civil
Latitude:19°45'54"S (-19.764999)
Longitude:47°57'53"W (-47.964777)
Datum:WGS 1984
Elevation:2655 ft (809 m)
Variation:21.00°W (WMM2015 magnetic declination)
-0.12° annual change
Runways:1
Longest:5771 × 148 ft (1759 × 45 m), paved

Time
Time Zone:UTC-3 (DST-2)
Local Time:

Weather
METAR:SBUR 050300Z 14003KT CAVOK 18/16 Q1020
TAF:SBUR 042230Z 0500/0512 12008KT 9999 SCT020 TN17/0508Z TX19/0511Z
BECMG 0502/0504 03005KT CAVOK
RMK PGL

Related Locations
Nearby:
Farthest:MMD: 12009 mi / 19326 km
Minami Daito Jima, Okinawa, JP

Find:

   beyond  
but within

Other Information
Maps:
NOTAMs:
Links:
Sources:

  
flag of Brazil
flag of Minas Gerais
  

Sectional Chart

Flight Planning
at skyvector.com

Satellite Image

Google Maps Satellite view

 

Copyright © 2004-2015 Karl L. Swartz. All rights reserved.
The Great Circle Mapper name and logo are trademarks of the Great Circle Mapper.
All other trademarks mentioned herein belong to their respective owners.
Please see credits for attibutions and further copyright information.

  Follow gcmap on Facebook Follow gcmap on Twitter Follow gcmap on Google+

hCard Microformat

Geo Microformat